This is the latest recevied weather packets stored in our database for station/object KD9JB-1. If no packets are shown the sender has not sent any weather packets the latest 10 day(s).
| Time | Temp. | Humidity | Pressure | Rain* | Wind** | Luminosity | Snow |
|---|---|---|---|---|---|---|---|
| 1778021795 | 11.11° C | 92% | 1007.7 hPa | 0.76 mm | - | - | - |
| 1778021495 | 11.11° C | 91% | 1007.7 hPa | 1.02 mm | - | - | - |
| 1778021195 | 11.67° C | 92% | 1007.9 hPa | 1.27 mm | - | - | - |
| 1778020895 | 11.67° C | 92% | 1007.8 hPa | 1.52 mm | - | - | - |
| 1778020595 | 11.67° C | 92% | 1007.8 hPa | 2.03 mm | - | - | - |
| 1778020295 | 12.22° C | 91% | 1007.7 hPa | 2.79 mm | - | - | - |
| 1778019995 | 12.22° C | 92% | 1007.7 hPa | 2.79 mm | - | - | - |
| 1778019695 | 12.78° C | 92% | 1007.6 hPa | 3.3 mm | - | - | - |
| 1778019395 | 12.78° C | 91% | 1007.6 hPa | 3.56 mm | - | - | - |
| 1778019095 | 13.33° C | 92% | 1007.4 hPa | 3.81 mm | - | - | - |
| 1778018795 | 13.33° C | 91% | 1007.4 hPa | 4.06 mm | - | - | - |
| 1778018495 | 13.89° C | 91% | 1007.3 hPa | 3.81 mm | - | - | - |
| 1778018195 | 14.44° C | 92% | 1007.2 hPa | 3.81 mm | - | - | - |
| 1778017895 | 15° C | 92% | 1007.1 hPa | 3.81 mm | - | - | - |
| 1778017595 | 15° C | 92% | 1007 hPa | 4.06 mm | - | - | - |
| 1778017295 | 15.56° C | 92% | 1006.8 hPa | 4.06 mm | - | - | - |
| 1778016995 | 16.67° C | 94% | 1006.8 hPa | 3.81 mm | - | - | - |
| 1778016695 | 16.67° C | 94% | 1006.7 hPa | 3.05 mm | - | - | - |
| 1778016395 | 16.11° C | 94% | 1006.7 hPa | 3.05 mm | - | - | - |
| 1778016095 | 16.11° C | 94% | 1006.8 hPa | 2.54 mm | - | - | - |
| 1778015795 | 16.11° C | 94% | 1006.9 hPa | 2.54 mm | - | - | - |
| 1778015495 | 16.11° C | 93% | 1006.8 hPa | 2.29 mm | - | - | - |
| 1778015195 | 16.67° C | 93% | 1006.7 hPa | 2.03 mm | - | - | - |
| 1778014895 | 16.67° C | 93% | 1006.6 hPa | 2.03 mm | - | - | - |
| 1778014595 | 16.67° C | 93% | 1006.6 hPa | 1.78 mm | - | - | - |
* Rain latest hour (hover to see other rain measurements)
** Current wind speed in m/s (hover to see current wind gust speed)